Location: Ferchesar
(52.6477°N, 12.4298°E)
Time: 23:34:43
(UTC+01:00)

Vanguard 2 Rocket - Pass Details

Date: 09 December 2021
Orbit: 554 x 3325 km, 32.9° (Epoch: 21 January)

Event Time Altitude Azimuth Distance (km) Brightness Sun altitude
Rises 18:11:19 0° 223° (SW) 3,141 10.6 -19.3°
Reaches altitude 10° 18:14:48 10° 195° (SSW) 2,550 9.5 -19.8°
Maximum altitude 18:17:32 13° 167° (SSE) 2,610 9.2 -20.2°
Drops below altitude 10° 18:20:49 10° 142° (SE) 3,217 9.4 -20.7°
Enters shadow 18:22:12 - 134° (SE) 3,576 9.6 -20.9°
Sets 18:26:32 0° 119° (ESE) 4,860 - -21.5°
